Terminal Aerodrome Forecast
Issued by NWS Houston/Galveston, TX

Home | Current Version | Previous Version | Text Only | Print | Product List | Glossary On
Versions: 1 2 3 4 5 6 7 8 9 10 11 12 13 14 15 16 17 18 19 20 21 22 23 24 25 26 27 28 29 30 31 32 33 34 35 36 37 38 39 40 41 42 43 44 45
000
FTUS44 KHGX 031139
TAFGLS
TAF
KGLS 031139Z 0312/0412 04005KT 1/4SM FG VV002
     FM031600 14010KT 1SM BR OVC002
     FM031800 15010KT 5SM BR OVC007
     FM040000 14009KT 2SM BR OVC003
     FM040300 12009KT 1/2SM FG OVC002=

USA.gov is the U.S. government's official web portal to all federal, state and local government web resources and services.